{"data":{"norad_id":49428,"epoch":"2026-09-20T03:25:30.529344Z","epoch_age_seconds":72120,"freshness":"FRESH","line1":"1 49428U 21104W   26263.14271446  .00011823  00000+0  61978-3 0  9991","line2":"2 49428  53.1585  72.0626 0001436 130.5026 229.6094 15.16195198268048","mean_motion":15.16195198,"eccentricity":0.0001436,"inclination_deg":53.1585,"raan_deg":72.0626,"arg_perigee_deg":130.5026,"mean_anomaly_deg":229.6094,"bstar":0.00061978,"rev_number":26804,"period_min":94.974578596443,"perigee_km":516.36223269702,"apogee_km":518.34261725988,"semimajor_km":6895.4894249784,"source":"CELESTRAK","updated_at":"2026-09-20T09:00:39.258875Z"}}